STARLINK-1065 (44770 NORAD) Tracking and Keplerian Element Data

This shows tracking and keplerian element data for the satellite.

Feedback or suggestion? Click here.




ElementValue
Catalog44770
NameSTARLINK-1065
Epoch Orbit1035
Epoch Day17.91667824
Epoch Year2020
RAAN214.7128
Inclination53.0033
Eccentricity0.000151
Argument of Perigee89.4947
Mean Anonmoly264.4601
Mean Motion15.05585994
Decay Rate0.00018063
L11 44770U 19074BK 20017.91667824 .00018063 00000-0 12555-2 0 9994
L22 44770 53.0033 214.7128 0001510 89.4947 264.4601 15.05585994 10354

Live tracking and technical data element details for STARLINK-1065 (NORAD 44770). STARLINK-1065 can be tracked NOW for your location showing map with azimuth and elevation plus other details from your city location.

Track the satellite on the map from your city or location and see movement details for azimuth, elevation, latitude, longitude, range, height, and movement on the map or in text.







IsCatalogInMostPopularTable: catalog: 44770, numindb: 20
Update: records affected: 1



GetName: 44770 STARLINK-1065

Hit Count: updated at: Sat, 18 Jan 2020 18:27:59 GMT